Temp
67 63 57 58 60 63 61 58 57 61 67 61 59 60 63 63 61 60 60 60 60 61 64 64 65 65 64 63 62 62 61 60 59 59 59 59 58 58 58 60 64 63 64 64
63 57 64 68 66 64 61 56 54 61 65 61 56 59 60 60 58 61 61 59 60 59 60 63 63 62 62 62 60 61 61 60 60 59 59 59 58 59 59 59 61 62 63 62
59 62 71 69 63 63 56 56 55 56 61 59 56 54 56 60 61 61 60 61 60 61 59 61 62 59 61 60 60 61 60 61 61 61 58 57 56 56 56 55 57 60 63 63
62 67 68 64 63 61 52 62 61 59 54 47 55 43 50 52 55 58 59 57 59 61 60 61 59 60 62 62 61 61 60 59 60 58 57 56 56 55 55 55 55 57 60 61
62 63 61 62 62 64 59 63 59 57 50 45 50 43 47 52 52 53 55 58 59 57 59 58 60 63 62 62 59 59 58 58 59 58 56 54 53 53 54 55 55 56 55 58
61 69 66 64 66 65 64 59 53 47 44 39 45 44 43 47 51 54 58 60 61 59 58 57 58 57 59 59 58 57 56 55 55 55 54 53 52 53 52 54 54 56 54 54
62 62 67 69 61 62 59 48 38 38 36 38 48 44 45 54 56 59 59 58 57 56 56 58 54 56 56 55 56 57 54 53 53 53 53 53 53 52 52 52 51 51 53 54
51 51 62 68 61 54 51 48 38 33 32 38 47 39 47 57 58 60 59 57 56 55 55 54 54 53 54 55 54 53 52 52 52 53 53 53 52 50 49 49 49 49 49 51
50 53 65 66 65 62 52 45 50 41 38 36 40 47 55 56 56 56 55 57 55 54 52 52 51 52 52 52 52 51 51 52 52 52 51 50 50 48 47 48 48 48 49 52
55 48 60 65 65 62 54 57 44 39 33 33 38 41 43 51 53 53 52 50 50 49 50 53 52 53 52 50 51 52 52 51 50 49 48 50 48 48 48 47 47 47 48 49
55 49 53 58 54 53 52 48 44 43 39 33 32 38 48 50 51 50 48 49 48 48 51 52 52 51 51 51 51 51 50 48 48 48 48 48 48 48 47 46 47 47 47 50
53 47 43 52 59 58 55 50 47 35 39 36 35 38 50 49 51 52 51 51 48 50 52 50 50 51 50 50 50 49 47 47 49 48 48 47 47 47 46 48 49 51 50 51
54 44 34 45 50 56 52 54 49 43 39 36 31 38 53 52 51 50 48 48 52 50 48 50 49 49 50 49 49 48 47 47 48 48 47 46 45 45 48 49 51 51 51 51
56 44 43 38 45 48 48 52 51 46 31 38 39 42 47 47 48 48 46 49 49 48 50 48 47 47 48 48 47 47 46 47 47 47 48 46 47 49 49 50 50 50 51 50
52 46 45 49 51 52 51 52 52 47 46 41 45 44 47 48 48 48 49 48 48 50 50 48 48 47 46 45 45 46 45 46 46 46 46 48 49 50 50 50 50 50 49 50
48 44 44 46 53 52 50 53 52 51 50 47 46 43 49 49 48 48 49 49 49 49 50 49 49 48 47 45 45 45 45 45 45 45 47 49 49 50 49 50 49 49 49 49
48 44 40 38 48 48 40 50 51 51 51 48 41 46 48 47 49 47 47 48 48 48 49 48 47 46 45 44 44 43 44 45 44 45 48 49 49 49 49 49 48 48 48 48
44 42 41 38 42 33 49 55 57 52 51 49 48 48 50 49 48 48 47 45 47 48 48 47 45 44 44 43 43 44 44 46 45 45 48 49 49 48 48 48 48 48 48 48
49 43 38 36 34 44 51 52 50 46 47 51 49 50 51 49 47 46 49 48 46 46 47 45 44 44 43 42 43 44 47 47 45 47 47 48 48 48 48 48 48 49 49 48
50 47 43 36 34 32 45 54 56 53 38 52 51 49 49 46 38 41 47 49 47 47 46 44 44 43 42 42 45 45 45 45 45 46 47 48 48 48 48 49 48 48 48 49
42 41 39 34 35 41 51 56 56 40 42 50 51 50 48 44 45 47 47 46 45 45 45 45 42 41 42 43 43 43 45 44 46 47 47 48 49 48 50 49 48 48 47 47
43 38 36 35 34 36 55 54 46 48 46 51 51 50 48 47 48 48 47 44 43 44 45 44 41 41 42 43 41 44 44 46 47 47 47 48 48 49 50 48 48 48 47 46
44 47 41 42 42 50 53 52 53 51 51 51 50 50 50 48 48 48 45 43 43 43 43 43 41 41 41 42 44 43 45 47 47 46 47 47 49 50 50 48 48 47 47 45
49 50 46 46 50 52 54 53 53 53 53 52 52 50 50 48 48 46 45 44 43 42 42 41 41 39 39 44 46 46 47 47 46 45 46 47 48 48 49 49 48 48 46 44
50 51 48 47 51 52 56 55 55 54 54 53 52 51 51 48 46 46 44 43 43 41 41 41 40 39 39 44 45 47 47 47 45 45 46 47 47 47 48 49 48 48 48 43
50 50 45 43 53 51 53 56 55 52 52 52 52 51 50 49 47 46 44 43 41 41 40 40 40 39 40 42 44 46 47 46 45 45 46 46 46 47 48 48 48 46 43 43
MSLP
1011.36 1012.01 1012.93 1013.27 1013.25 1013.55 1013.90 1014.01 1013.87 1013.46 1013.22 1013.38 1013.88 1014.29 1015.11 1016.26 1017.28 1017.49 1018.16 1018.60 1018.90 1018.90 1018.89 1018.76 1018.61 1018.57 1018.81 1018.80 1018.70 1018.77 1018.96 1019.01 1018.85 1018.52 1018.38 1018.26 1018.39 1018.02 1017.76 1017.20 1016.95 1017.12 1016.89 1016.72
1012.01 1012.74 1012.92 1013.31 1013.60 1013.79 1014.03 1014.30 1014.45 1014.09 1013.82 1013.76 1014.28 1014.74 1015.73 1016.40 1017.15 1017.25 1017.69 1018.60 1018.90 1019.12 1019.23 1019.13 1018.94 1018.98 1019.09 1018.91 1019.36 1019.24 1019.09 1018.92 1018.65 1018.38 1018.17 1018.13 1018.03 1017.81 1017.59 1017.46 1017.24 1016.91 1016.80 1016.82
1012.29 1012.85 1012.90 1012.95 1013.67 1013.95 1014.36 1014.58 1014.73 1015.00 1014.72 1014.64 1014.95 1015.54 1015.99 1016.86 1017.43 1018.10 1018.52 1018.47 1018.81 1018.84 1019.01 1019.10 1018.96 1019.43 1019.45 1019.59 1019.53 1019.34 1018.88 1018.62 1018.42 1018.20 1018.14 1018.19 1018.29 1018.16 1018.00 1017.68 1017.38 1016.88 1016.46 1016.41
1012.75 1012.84 1012.84 1013.26 1013.64 1014.01 1014.48 1014.55 1014.96 1015.35 1015.89 1016.25 1016.25 1017.36 1017.13 1017.54 1017.82 1018.28 1018.61 1018.87 1018.94 1018.84 1019.01 1019.03 1019.31 1019.35 1019.31 1019.19 1019.02 1018.80 1018.65 1018.68 1018.55 1018.53 1018.51 1018.46 1018.40 1018.43 1017.74 1017.31 1016.88 1016.59 1016.42 1016.29
1013.07 1013.09 1013.23 1013.51 1013.85 1014.03 1014.68 1014.87 1015.63 1016.09 1016.86 1017.52 1017.72 1018.29 1018.03 1017.94 1018.30 1018.50 1018.80 1018.95 1019.04 1019.16 1019.12 1018.91 1018.87 1019.07 1018.83 1018.78 1018.87 1019.12 1019.16 1019.10 1019.03 1019.00 1019.11 1019.19 1019.05 1018.76 1018.38 1017.88 1017.32 1016.50 1016.11 1015.90
1013.27 1012.96 1013.17 1013.37 1013.89 1014.32 1014.92 1015.62 1016.70 1017.75 1018.48 1019.30 1019.06 1019.00 1018.93 1018.50 1018.39 1018.55 1018.70 1018.88 1019.21 1019.26 1019.28 1019.36 1019.27 1019.32 1019.35 1019.41 1019.42 1019.47 1019.57 1019.65 1019.54 1019.45 1019.38 1019.30 1019.19 1018.76 1018.27 1017.83 1017.59 1016.97 1016.51 1016.16
1013.99 1013.81 1013.46 1013.35 1014.02 1014.72 1015.57 1017.23 1018.91 1019.96 1020.53 1020.55 1019.61 1019.38 1019.10 1018.29 1018.06 1018.09 1018.56 1019.09 1019.35 1019.55 1019.67 1019.78 1019.82 1019.67 1019.67 1019.85 1019.93 1020.06 1020.27 1020.35 1020.13 1020.00 1019.71 1019.26 1018.87 1018.50 1018.29 1017.79 1017.29 1016.91 1016.32 1015.70
1014.98 1014.68 1014.17 1013.82 1014.41 1015.36 1016.76 1018.19 1019.96 1021.40 1022.33 1021.51 1020.13 1019.83 1018.82 1018.20 1018.15 1018.23 1018.72 1019.21 1019.62 1019.75 1019.97 1020.11 1020.11 1020.12 1020.30 1020.27 1020.35 1020.51 1020.52 1020.32 1019.98 1019.55 1019.16 1018.87 1018.63 1018.32 1017.98 1017.56 1017.12 1016.69 1016.30 1015.87
1015.51 1015.34 1014.70 1014.50 1014.73 1015.65 1017.17 1018.52 1019.66 1021.14 1022.51 1022.49 1021.19 1019.95 1018.89 1018.44 1018.83 1019.03 1019.38 1019.60 1019.93 1020.31 1020.42 1020.62 1020.79 1020.70 1020.63 1020.67 1020.64 1020.58 1020.39 1020.06 1019.62 1019.38 1019.15 1018.88 1018.58 1018.29 1017.89 1017.27 1016.84 1016.44 1015.97 1015.56
1016.03 1016.21 1015.80 1015.27 1015.33 1016.00 1016.86 1018.34 1019.91 1021.54 1022.92 1023.11 1021.90 1020.79 1019.67 1019.15 1019.32 1019.62 1019.88 1020.17 1020.41 1020.50 1020.65 1020.90 1021.03 1020.99 1021.00 1020.99 1020.95 1020.60 1020.18 1020.07 1019.78 1019.44 1019.14 1018.77 1018.42 1018.00 1017.55 1017.18 1016.78 1016.38 1015.91 1015.50
1016.39 1017.19 1017.24 1016.68 1016.54 1016.87 1017.59 1018.72 1020.50 1021.84 1023.08 1023.41 1023.04 1021.32 1019.95 1019.28 1019.44 1019.97 1020.26 1020.47 1020.60 1020.75 1021.10 1021.43 1021.34 1021.48 1021.38 1021.18 1020.99 1020.81 1020.51 1020.21 1019.90 1019.40 1018.85 1018.36 1017.94 1017.56 1017.23 1016.89 1016.41 1015.96 1015.49 1015.10
1017.34 1018.23 1018.69 1018.12 1017.25 1017.33 1017.71 1018.64 1020.02 1022.19 1023.23 1023.60 1023.15 1021.29 1020.17 1019.93 1019.96 1020.23 1020.38 1020.51 1020.84 1021.16 1021.49 1021.57 1021.58 1021.59 1021.73 1021.61 1021.28 1020.91 1020.55 1020.29 1019.72 1019.17 1018.61 1018.04 1017.49 1017.07 1016.71 1016.24 1015.71 1015.21 1014.87 1014.49
1017.76 1019.30 1019.79 1019.00 1018.52 1017.80 1018.29 1018.87 1020.05 1021.53 1022.52 1023.05 1023.13 1021.47 1020.58 1020.45 1020.42 1020.51 1020.80 1021.07 1021.36 1021.51 1021.66 1021.77 1021.86 1022.07 1021.98 1021.56 1021.18 1020.88 1020.51 1020.11 1019.49 1018.88 1018.29 1017.67 1017.18 1016.71 1016.05 1015.49 1014.91 1014.50 1014.13 1013.75
1018.02 1019.93 1020.47 1020.64 1019.78 1019.49 1019.35 1019.24 1019.73 1020.82 1022.20 1022.29 1021.99 1021.00 1020.87 1020.86 1020.83 1021.03 1021.29 1021.35 1021.59 1021.71 1021.88 1022.11 1022.36 1022.18 1021.91 1021.54 1021.17 1020.79 1020.33 1019.84 1019.22 1018.59 1017.83 1017.24 1016.59 1015.97 1015.37 1014.76 1014.25 1013.80 1013.45 1013.09
1018.95 1020.35 1020.72 1020.37 1019.94 1019.69 1019.37 1019.15 1019.33 1020.10 1020.45 1021.33 1020.52 1020.62 1020.35 1020.67 1020.91 1021.13 1021.22 1021.44 1021.70 1021.82 1022.07 1022.34 1022.43 1022.16 1021.78 1021.41 1021.07 1020.65 1020.19 1019.59 1018.95 1018.29 1017.48 1016.69 1015.95 1015.32 1014.63 1014.04 1013.47 1013.06 1012.75 1012.39
1019.74 1020.62 1020.99 1020.81 1019.99 1019.66 1019.32 1018.79 1018.55 1018.74 1019.04 1019.84 1020.06 1020.14 1020.07 1020.44 1020.78 1021.18 1021.37 1021.64 1021.82 1021.96 1022.14 1022.22 1022.01 1021.81 1021.54 1021.29 1020.94 1020.47 1019.85 1019.19 1018.64 1017.92 1017.03 1016.15 1015.37 1014.62 1013.91 1013.27 1012.72 1012.25 1011.87 1011.59
1020.33 1021.32 1022.04 1021.66 1020.81 1020.02 1019.12 1018.13 1017.97 1018.14 1018.53 1019.09 1020.04 1019.89 1020.09 1020.63 1020.97 1021.21 1021.50 1021.70 1021.75 1021.78 1021.93 1021.96 1021.85 1021.68 1021.34 1021.01 1020.62 1020.19 1019.49 1018.88 1018.29 1017.55 1016.63 1015.72 1014.89 1014.04 1013.21 1012.56 1011.93 1011.49 1011.05 1010.82
1020.45 1021.57 1022.30 1022.52 1021.67 1020.71 1018.52 1017.85 1017.70 1018.05 1018.61 1019.12 1019.65 1020.04 1020.21 1020.42 1020.60 1020.98 1021.21 1021.36 1021.54 1021.76 1021.83 1021.84 1021.75 1021.49 1021.10 1020.68 1020.32 1019.84 1019.28 1018.60 1017.92 1017.16 1016.23 1015.42 1014.49 1013.45 1012.63 1011.82 1011.24 1010.59 1010.27 1010.02
1019.59 1021.28 1022.75 1023.09 1022.63 1020.79 1018.50 1017.84 1017.91 1018.31 1018.94 1019.16 1019.67 1019.93 1020.12 1020.39 1020.87 1021.05 1021.09 1021.24 1021.54 1021.63 1021.70 1021.79 1021.74 1021.47 1021.06 1020.63 1020.17 1019.65 1018.98 1018.29 1017.56 1016.74 1015.93 1015.04 1014.14 1013.07 1012.15 1011.22 1010.49 1009.86 1009.42 1009.29
1020.37 1020.90 1022.02 1023.28 1022.94 1021.40 1018.87 1017.88 1017.97 1018.38 1019.00 1019.03 1019.44 1019.91 1020.36 1020.92 1021.35 1021.30 1020.90 1021.20 1021.37 1021.56 1021.78 1021.86 1021.66 1021.43 1021.02 1020.43 1020.02 1019.53 1018.80 1018.05 1017.36 1016.54 1015.64 1014.75 1013.81 1012.74 1011.78 1011.00 1010.29 1009.69 1009.22 1008.69
1020.79 1021.74 1022.31 1022.71 1022.34 1020.63 1018.37 1018.03 1018.37 1018.93 1018.93 1018.70 1019.18 1019.66 1020.30 1020.83 1020.71 1020.71 1020.78 1021.19 1021.44 1021.72 1021.85 1021.73 1021.62 1021.50 1021.05 1020.42 1020.02 1019.49 1018.68 1017.91 1017.23 1016.28 1015.37 1014.41 1013.47 1012.50 1011.43 1010.80 1010.10 1009.44 1008.86 1008.56
1020.03 1021.09 1021.94 1022.40 1021.84 1020.10 1017.77 1018.27 1018.43 1018.06 1018.10 1018.38 1018.85 1019.21 1019.73 1020.14 1020.39 1020.67 1020.98 1021.33 1021.65 1021.81 1021.81 1021.67 1021.64 1021.36 1020.90 1020.42 1020.00 1019.32 1018.57 1017.75 1017.01 1016.12 1015.19 1014.28 1013.23 1012.23 1011.24 1010.58 1009.86 1009.30 1008.76 1008.24
1019.27 1018.87 1019.35 1019.98 1019.10 1017.69 1017.13 1016.70 1016.69 1017.22 1017.69 1018.26 1018.58 1018.90 1019.47 1020.06 1020.30 1020.59 1021.03 1021.44 1021.70 1021.83 1021.90 1021.76 1021.75 1021.37 1020.91 1020.32 1019.83 1019.18 1018.40 1017.60 1016.78 1015.89 1015.06 1014.15 1013.08 1012.11 1011.17 1010.47 1009.77 1009.18 1008.61 1008.23
1017.89 1017.79 1018.29 1018.63 1017.33 1016.92 1016.58 1016.60 1016.83 1017.10 1017.38 1017.74 1018.11 1018.70 1019.36 1019.87 1020.15 1020.61 1021.13 1021.52 1021.73 1021.88 1021.86 1021.83 1021.68 1021.39 1020.94 1020.21 1019.64 1019.10 1018.31 1017.58 1016.84 1015.93 1015.09 1014.16 1013.19 1012.21 1011.17 1010.44 1009.78 1009.31 1008.91 1008.59
1017.22 1017.19 1017.45 1017.72 1017.02 1016.76 1016.28 1016.22 1016.45 1017.10 1017.50 1017.87 1018.32 1018.70 1019.25 1019.78 1020.20 1020.58 1021.09 1021.43 1021.66 1021.86 1021.86 1021.83 1021.68 1021.38 1020.90 1020.14 1019.50 1018.83 1018.22 1017.58 1016.88 1016.02 1015.22 1014.37 1013.47 1012.49 1011.43 1010.62 1009.91 1009.44 1008.93 1008.82
1016.63 1016.24 1016.74 1016.44 1016.09 1016.09 1015.83 1015.31 1015.79 1016.71 1017.27 1017.79 1018.29 1018.90 1019.29 1019.65 1020.10 1020.41 1020.95 1021.27 1021.57 1021.78 1021.81 1021.77 1021.51 1021.19 1020.71 1020.07 1019.43 1018.81 1018.24 1017.62 1016.99 1016.10 1015.30 1014.61 1013.74 1012.70 1011.72 1010.85 1010.00 1009.40 1009.13 1008.78
Wind_Speed
5 7 4 4 2 5 6 5 4 2 5 2 4 7 16 11 6 12 11 10 8 9 7 6 7 6 5 3 4 3 3 2 3 2 1 1 1 2 2 2 2 1 3 5
7 3 3 9 6 8 8 4 3 5 3 3 1 5 6 8 5 11 14 9 9 5 6 6 7 6 7 7 1 2 3 3 3 3 2 2 2 3 2 1 3 3 3 4
7 1 4 7 5 7 3 4 3 4 6 3 2 6 3 4 5 6 3 5 5 11 10 7 7 4 3 2 5 7 8 8 7 5 1 2 2 2 2 3 3 4 5 5
4 2 6 5 4 4 1 3 2 4 5 2 4 5 5 5 4 6 6 3 5 6 2 3 3 4 8 8 8 9 8 7 6 4 3 4 4 4 4 4 4 5 5 6
4 5 2 7 3 0 4 1 3 2 2 3 7 4 7 2 4 3 3 3 4 1 3 2 5 7 6 5 6 3 3 6 7 7 6 5 6 4 5 6 8 7 5 7
2 2 3 4 2 3 2 5 6 5 3 3 2 4 6 2 2 3 3 4 5 6 5 3 3 1 3 5 5 5 6 6 6 6 6 3 5 6 5 6 6 6 5 5
7 4 5 1 2 2 8 8 6 7 7 4 6 5 8 5 3 6 8 6 5 4 2 2 4 3 4 5 4 4 5 4 4 2 3 4 6 6 7 7 5 6 5 5
4 5 3 2 2 2 3 6 7 2 1 6 5 2 6 4 1 3 5 6 3 2 5 6 6 5 6 6 4 1 0 2 4 5 7 6 7 4 5 6 6 5 5 6
4 3 3 2 2 4 2 2 4 6 2 2 3 3 6 2 3 4 4 4 5 7 5 4 5 4 3 2 1 3 4 6 6 7 6 7 7 7 7 8 6 5 6 5
3 1 2 3 3 3 2 5 3 4 0 4 5 4 6 6 7 5 4 3 4 2 3 4 0 1 3 3 4 5 6 7 6 7 6 7 7 7 7 6 7 7 7 6
4 4 5 2 2 4 3 2 7 5 5 6 3 7 4 6 5 7 3 1 0 2 2 5 4 3 3 4 6 7 7 7 7 7 9 9 9 8 8 7 8 9 7 8
2 5 2 7 6 3 4 4 5 7 4 1 3 8 5 5 6 6 2 2 1 4 4 4 3 3 5 7 7 6 5 6 9 9 9 10 10 9 10 10 11 9 10 9
5 3 4 9 8 6 5 3 5 5 3 5 6 8 1 3 4 1 1 2 4 5 3 3 3 4 6 7 7 6 7 9 11 10 10 11 11 10 11 10 10 10 10 10
7 3 7 7 6 2 5 4 1 5 4 3 7 3 5 3 3 0 1 5 5 4 5 3 4 6 7 7 6 7 8 9 11 11 12 11 12 11 11 11 11 11 10 10
5 3 4 6 7 4 6 8 5 7 6 6 8 8 6 7 5 5 4 2 2 5 4 4 6 7 7 7 7 7 8 9 10 12 11 12 13 13 12 12 12 11 10 10
2 1 2 4 4 3 6 10 10 8 2 3 4 3 4 2 2 2 4 4 6 6 6 6 7 8 8 7 7 8 10 10 10 11 12 13 13 12 13 13 12 11 11 10
4 5 3 5 4 7 6 3 2 1 1 6 5 7 4 2 5 6 5 5 7 5 5 7 8 7 7 7 7 9 11 11 10 12 12 13 13 13 14 13 12 11 10 10
7 6 3 3 5 2 8 4 5 3 1 3 5 5 6 5 2 5 4 3 5 5 6 7 6 7 8 6 8 9 10 10 10 11 13 13 14 14 14 14 13 12 9 9
4 6 3 3 3 7 8 3 4 5 7 5 7 6 4 0 3 3 2 3 3 4 4 5 5 7 7 8 8 9 11 12 10 12 13 14 15 15 15 15 14 10 8 7
5 5 6 3 2 5 8 2 3 4 7 8 7 7 6 4 3 5 3 4 2 5 3 5 7 6 7 8 8 10 10 11 11 14 14 14 15 15 15 12 12 9 9 7
2 2 5 3 4 9 9 5 2 6 12 7 7 7 7 5 6 4 2 2 2 2 5 6 6 6 7 8 7 10 10 11 12 13 14 14 14 15 13 11 10 10 8 7
9 7 5 3 3 9 7 4 9 10 1 7 6 6 6 5 4 4 5 2 2 4 6 6 6 7 7 7 6 9 10 12 12 13 14 14 15 13 9 11 10 10 8 7
2 9 8 11 10 5 8 6 6 7 7 7 7 6 8 7 6 5 5 3 3 4 6 4 6 7 7 7 6 9 11 11 13 13 13 14 15 13 12 10 10 8 7 5
3 4 3 4 4 7 7 3 4 6 6 6 6 7 8 6 6 5 3 3 2 4 5 4 6 7 7 7 8 8 11 11 11 13 13 13 13 14 12 9 7 6 5 6
5 4 4 3 6 4 5 7 6 5 5 6 6 6 8 7 6 5 4 3 3 4 3 4 6 6 7 8 8 9 10 11 11 12 11 12 10 12 11 9 8 7 5 2
5 7 6 7 9 6 8 5 9 11 10 9 9 6 5 6 8 5 4 3 2 4 3 5 6 6 7 7 7 8 10 10 11 11 10 10 10 10 9 8 8 9 8 10
Wind_Direction
1 61 59 330 105 101 117 73 19 308 329 76 296 167 175 163 155 147 155 163 170 176 196 192 179 180 175 204 198 178 212 321 358 342 1 26 243 263 297 267 163 153 149 135
25 55 90 113 94 87 51 59 339 290 322 19 112 256 105 159 174 173 159 160 174 177 198 209 202 186 196 202 157 233 231 234 229 209 200 196 221 264 272 283 288 229 202 169
119 117 134 95 54 63 45 102 309 255 334 358 19 320 97 47 95 107 153 171 170 180 187 207 212 204 250 249 202 213 214 221 228 232 329 350 357 314 319 290 280 255 223 220
63 7 105 91 92 120 73 210 269 289 43 258 37 278 10 346 83 143 189 180 198 208 238 334 120 187 222 220 212 222 224 234 250 262 266 230 225 238 240 230 236 234 250 243
270 168 60 59 344 102 219 268 323 332 182 89 339 84 282 31 63 61 80 176 213 111 161 63 140 203 229 246 228 309 290 275 287 301 322 324 313 316 328 317 312 281 247 240
338 328 101 153 108 64 28 12 34 53 70 57 293 147 310 286 181 150 172 169 147 129 103 127 197 251 301 30 33 35 13 355 1 1 353 315 281 293 304 296 295 290 296 292
358 349 317 81 36 9 54 47 346 357 9 221 315 52 238 300 186 171 159 153 135 155 166 24 35 0 76 56 39 67 54 16 343 308 266 258 257 248 251 262 261 274 280 275
137 330 350 354 138 187 63 133 149 264 299 282 328 155 254 215 307 79 94 144 161 46 17 36 52 76 94 96 73 41 27 347 315 294 291 288 284 277 281 277 282 274 268 277
128 282 324 37 63 100 154 70 176 106 18 30 278 302 339 188 124 75 116 73 37 20 44 95 110 118 131 131 65 23 325 298 298 303 318 319 314 308 286 284 283 281 286 285
185 63 327 307 47 35 101 160 52 16 191 298 291 279 233 230 205 151 128 99 34 76 53 30 166 317 343 315 283 298 328 313 319 326 315 303 290 291 288 291 288 287 288 287
110 111 289 346 169 185 346 13 55 110 129 176 274 269 244 237 179 161 166 174 180 82 346 316 263 284 285 320 329 312 311 323 318 302 299 301 299 299 295 291 285 277 271 277
34 131 216 236 284 295 176 176 124 117 245 210 162 270 340 96 130 148 149 359 133 242 316 309 224 280 338 303 293 301 321 315 302 292 296 294 293 292 290 287 284 276 280 278
183 23 22 348 354 1 43 4 109 117 80 204 136 265 77 89 97 118 35 222 270 316 326 320 324 320 297 305 307 311 308 302 301 298 297 295 293 289 286 280 282 283 277 276
87 116 149 191 219 199 293 293 324 138 117 227 227 250 198 192 192 146 244 216 272 275 263 246 285 292 293 288 294 305 297 300 301 299 294 296 294 294 291 288 285 282 278 274
99 161 170 240 237 249 254 274 258 197 207 176 256 203 184 185 182 180 197 238 236 254 236 265 274 274 282 287 295 292 288 293 300 298 300 296 298 296 293 290 286 281 277 270
25 199 164 284 304 284 265 266 260 257 201 203 138 242 154 131 59 216 281 268 251 251 244 275 284 293 290 288 289 296 296 297 307 300 300 302 301 300 299 295 289 281 275 269
124 127 91 273 336 332 346 252 267 321 116 139 175 233 160 211 248 227 223 235 243 244 286 289 281 287 292 292 291 297 304 309 301 301 305 305 306 306 303 299 292 283 273 268
134 111 114 249 15 296 241 269 280 164 55 95 102 170 196 207 191 165 195 222 245 268 275 284 301 305 300 293 299 299 304 297 312 310 315 316 313 310 307 301 293 286 273 263
134 125 112 147 201 287 302 132 139 156 263 181 172 206 218 49 52 263 201 213 223 256 287 291 297 293 297 296 301 305 319 327 317 320 318 317 314 312 310 307 303 295 277 265
69 66 120 128 145 245 241 300 116 108 301 193 185 202 192 132 348 257 234 181 297 323 309 290 300 304 309 306 313 321 321 321 324 320 317 315 313 311 313 320 323 312 306 280
100 50 175 146 203 284 244 203 197 88 241 177 184 190 176 196 200 216 180 176 323 281 290 304 311 310 301 308 329 321 322 325 320 313 314 315 315 315 314 320 315 310 308 302
172 153 196 100 156 276 169 93 164 212 207 174 189 188 187 184 189 209 187 221 257 305 317 324 327 318 316 320 319 321 323 321 319 317 317 319 318 320 323 322 318 319 320 319
229 184 184 173 206 230 228 189 200 169 162 200 174 172 166 170 202 188 196 206 256 313 310 312 315 314 315 311 316 319 323 324 324 320 322 321 321 324 326 325 319 325 336 329
237 157 191 96 256 237 229 239 173 190 191 168 162 153 163 180 189 194 185 203 272 298 314 310 319 323 318 318 320 319 322 326 326 321 325 323 326 326 328 325 322 322 328 341
205 136 165 267 287 308 275 220 184 179 148 135 146 159 178 170 189 189 184 204 251 288 299 309 320 321 311 315 321 326 328 330 329 323 325 326 326 324 326 330 325 330 331 272
183 185 161 222 224 186 237 219 166 159 174 165 157 165 174 175 181 164 186 206 239 292 293 324 324 320 312 312 326 325 331 330 329 326 330 328 325 324 327 327 332 336 350 356